| time (UTC) | temp F | wind direction | speed MPH | gust MPH | rain 1hr in | rain 24hr in | rain mn in | humidity % | barometer mb |
| 20260831123516 | 65 | 0 | 2.0 | 9.0 | 0.01 | 0.27 | 0.26 | 88 | 1008.6 |
| 20260831122516 | 65 | 0 | 2.0 | 6.0 | 0.02 | 0.27 | 0.26 | 88 | 1008.4 |
| 20260831121516 | 64 | 0 | 2.0 | 5.0 | 0.02 | 0.27 | 0.26 | 88 | 1008.3 |
| 20260831120516 | 64 | 0 | 2.0 | 5.0 | 0.02 | 0.27 | 0.26 | 87 | 1008.4 |
| 20260831115516 | 64 | 0 | 1.0 | 5.0 | 0.02 | 0.27 | 0.26 | 88 | 1008.1 |
| 20260831114516 | 64 | 68 | 1.0 | 3.0 | 0.01 | 0.26 | 0.25 | 88 | 1008.4 |
| 20260831113516 | 64 | 0 | 1.0 | 2.0 | 0.01 | 0.26 | 0.25 | 88 | 1008.7 |
| 20260831112516 | 64 | 0 | 1.0 | 4.0 | 0.00 | 0.25 | 0.24 | 88 | 1009.3 |
| 20260831111516 | 64 | 0 | 1.0 | 3.0 | 0.00 | 0.25 | 0.24 | 88 | 1009.3 |
| 20260831110556 | 64 | 0 | 2.0 | 4.0 | 0.00 | 0.25 | 0.24 | 88 | 1009.4 |
| 20260831105516 | 64 | 68 | 1.0 | 4.0 | 0.00 | 0.25 | 0.24 | 88 | 1009.1 |
| 20260831104516 | 63 | 0 | 3.0 | 7.0 | 0.00 | 0.25 | 0.24 | 87 | 1009.3 |
| 20260831103516 | 63 | 0 | 2.0 | 8.0 | 0.00 | 0.25 | 0.24 | 87 | 1009.3 |
| 20260831102516 | 63 | 0 | 2.0 | 6.0 | 0.00 | 0.25 | 0.24 | 87 | 1009.1 |
| 20260831101516 | 63 | 0 | 2.0 | 10.0 | 0.00 | 0.25 | 0.24 | 87 | 1009.2 |
| 20260831100516 | 63 | 0 | 4.0 | 11.0 | 0.00 | 0.25 | 0.24 | 87 | 1009.4 |
| 20260831095516 | 63 | 0 | 4.0 | 10.0 | 0.02 | 0.25 | 0.24 | 87 | 1008.9 |
| 20260831094516 | 63 | 0 | 4.0 | 13.0 | 0.04 | 0.25 | 0.24 | 87 | 1008.7 |
| 20260831093516 | 63 | 0 | 4.0 | 10.0 | 0.04 | 0.25 | 0.24 | 87 | 1009.1 |
| 20260831092516 | 63 | 0 | 3.0 | 9.0 | 0.05 | 0.25 | 0.24 | 87 | 1009.5 |
| 20260831091516 | 63 | 0 | 4.0 | 12.0 | 0.06 | 0.25 | 0.24 | 87 | 1009.7 |
| 20260831090516 | 63 | 0 | 4.0 | 10.0 | 0.07 | 0.25 | 0.24 | 87 | 1009.8 |
| 20260831085516 | 63 | 0 | 4.0 | 11.0 | 0.06 | 0.23 | 0.22 | 87 | 1009.7 |
| 20260831084516 | 63 | 0 | 3.0 | 9.0 | 0.04 | 0.21 | 0.20 | 87 | 1009.9 |
| 20260831083516 | 63 | 0 | 5.0 | 11.0 | 0.04 | 0.21 | 0.20 | 87 | 1009.9 |
| 20260831082516 | 62 | 0 | 4.0 | 10.0 | 0.03 | 0.20 | 0.19 | 87 | 1009.9 |
| 20260831081536 | 62 | 0 | 3.0 | 9.0 | 0.02 | 0.19 | 0.18 | 87 | 1010.5 |
| 20260831080516 | 62 | 0 | 4.0 | 11.0 | 0.02 | 0.18 | 0.17 | 87 | 1010.4 |
| 20260831075516 | 62 | 0 | 3.0 | 9.0 | 0.01 | 0.17 | 0.16 | 87 | 1010.0 |
| 20260831074516 | 62 | 0 | 4.0 | 11.0 | 0.01 | 0.17 | 0.16 | 87 | 1010.0 |
| 20260831073516 | 62 | 0 | 4.0 | 9.0 | 0.02 | 0.17 | 0.16 | 87 | 1010.1 |
| 20260831072516 | 62 | 0 | 4.0 | 10.0 | 0.02 | 0.17 | 0.16 | 87 | 1010.2 |
| 20260831071536 | 62 | 0 | 4.0 | 13.0 | 0.02 | 0.17 | 0.16 | 87 | 1010.4 |
| 20260831070516 | 62 | 0 | 4.0 | 10.0 | 0.02 | 0.16 | 0.15 | 87 | 1010.5 |
| 20260831065516 | 62 | 0 | 5.0 | 11.0 | 0.11 | 0.16 | 0.15 | 87 | 1010.4 |
| 20260831064516 | 62 | 0 | 4.0 | 12.0 | 0.15 | 0.16 | 0.15 | 87 | 1010.7 |
| 20260831063516 | 62 | 0 | 3.0 | 10.0 | 0.14 | 0.15 | 0.14 | 87 | 1010.9 |
| 20260831062516 | 62 | 0 | 4.0 | 12.0 | 0.14 | 0.15 | 0.14 | 87 | 1010.9 |
| 20260831061516 | 62 | 0 | 1.0 | 6.0 | 0.14 | 0.15 | 0.14 | 87 | 1011.8 |
| 20260831060516 | 62 | 0 | 4.0 | 11.0 | 0.13 | 0.14 | 0.13 | 86 | 1011.4 |
| 20260831055516 | 62 | 0 | 3.0 | 10.0 | 0.05 | 0.05 | 0.04 | 86 | 1011.4 |
| 20260831054516 | 62 | 0 | 3.0 | 10.0 | 0.01 | 0.01 | 0.00 | 86 | 1011.4 |
| 20260831053516 | 62 | 0 | 3.0 | 10.0 | 0.01 | 0.01 | 0.00 | 86 | 1011.8 |
| 20260831052516 | 62 | 0 | 3.0 | 11.0 | 0.01 | 0.01 | 0.00 | 86 | 1012.0 |
| 20260831051515 | 62 | 0 | 5.0 | 14.0 | 0.01 | 0.01 | 0.00 | 86 | 1012.0 |
| 20260831050516 | 62 | 0 | 3.0 | 10.0 | 0.01 | 0.01 | 0.00 | 86 | 1012.2 |
| 20260831045536 | 62 | 0 | 4.0 | 11.0 | 0.00 | 0.00 | 0.00 | 85 | 1012.3 |
| 20260831044516 | 62 | 0 | 3.0 | 8.0 | 0.00 | 0.00 | 0.00 | 85 | 1012.4 |
| 20260831043536 | 62 | 0 | 4.0 | 12.0 | 0.00 | 0.00 | 0.00 | 85 | 1012.5 |
| 20260831042516 | 62 | 0 | 4.0 | 10.0 | 0.00 | 0.00 | 0.00 | 84 | 1012.8 |
| 20260831041536 | 62 | 0 | 3.0 | 9.0 | 0.00 | 0.00 | 0.00 | 84 | 1012.9 |
| 20260831040516 | 62 | 0 | 4.0 | 11.0 | 0.00 | 0.00 | 0.00 | 84 | 1012.9 |
| 20260831035516 | 62 | 0 | 4.0 | 13.0 | 0.00 | 0.00 | 0.00 | 83 | 1013.0 |
| 20260831034536 | 63 | 0 | 3.0 | 9.0 | 0.00 | 0.00 | 0.00 | 83 | 1013.0 |
| 20260831033516 | 63 | 0 | 4.0 | 13.0 | 0.00 | 0.00 | 0.00 | 83 | 1013.0 |
| 20260831032515 | 63 | 0 | 5.0 | 12.0 | 0.00 | 0.00 | 0.00 | 83 | 1013.2 |
| 20260831031536 | 63 | 0 | 4.0 | 11.0 | 0.00 | 0.00 | 0.00 | 83 | 1013.1 |
| 20260831030515 | 63 | 0 | 3.0 | 9.0 | 0.00 | 0.00 | 0.00 | 83 | 1013.1 |
| 20260831025516 | 63 | 0 | 4.0 | 12.0 | 0.00 | 0.00 | 0.00 | 82 | 1013.3 |
| 20260831024515 | 63 | 0 | 2.0 | 8.0 | 0.00 | 0.00 | 0.00 | 82 | 1013.0 |
| 20260831023516 | 63 | 0 | 4.0 | 14.0 | 0.00 | 0.00 | 0.00 | 82 | 1012.8 |
| 20260831022516 | 63 | 0 | 4.0 | 11.0 | 0.00 | 0.00 | 0.00 | 82 | 1012.7 |
| 20260831021516 | 64 | 0 | 3.0 | 15.0 | 0.00 | 0.00 | 0.00 | 82 | 1012.7 |
| 20260831020516 | 64 | 0 | 3.0 | 11.0 | 0.00 | 0.00 | 0.00 | 82 | 1012.5 |
| 20260831015516 | 64 | 0 | 4.0 | 10.0 | 0.00 | 0.00 | 0.00 | 82 | 1012.3 |
| 20260831014515 | 64 | 0 | 3.0 | 12.0 | 0.00 | 0.00 | 0.00 | 82 | 1012.4 |
| 20260831013515 | 64 | 0 | 4.0 | 10.0 | 0.00 | 0.00 | 0.00 | 82 | 1012.3 |
| 20260831012515 | 64 | 0 | 4.0 | 11.0 | 0.00 | 0.00 | 0.00 | 82 | 1012.4 |
| 20260831011516 | 64 | 0 | 3.0 | 10.0 | 0.00 | 0.00 | 0.00 | 82 | 1012.6 |
| 20260831010516 | 64 | 0 | 3.0 | 10.0 | 0.00 | 0.00 | 0.00 | 81 | 1012.6 |
| 20260831005516 | 65 | 0 | 4.0 | 12.0 | 0.00 | 0.00 | 0.00 | 81 | 1012.6 |
| 20260831004515 | 65 | 0 | 5.0 | 10.0 | 0.00 | 0.00 | 0.00 | 81 | 1012.7 |
| 20260831003538 | 65 | 0 | 5.0 | 11.0 | 0.00 | 0.00 | 0.00 | 81 | 1012.9 |
| 20260831002518 | 65 | 0 | 4.0 | 10.0 | 0.00 | 0.00 | 0.00 | 81 | 1013.0 |
| 20260831001517 | 65 | 0 | 4.0 | 12.0 | 0.00 | 0.00 | 0.00 | 81 | 1012.8 |
| 20260831000517 | 65 | 0 | 4.0 | 13.0 | 0.00 | 0.00 | 0.00 | 81 | 1012.9 |
| 20260830235517 | 65 | 0 | 5.0 | 12.0 | 0.00 | 0.00 | 0.00 | 81 | 1012.8 |
| 20260830234517 | 65 | 0 | 4.0 | 14.0 | 0.00 | 0.00 | 0.00 | 81 | 1012.9 |
| 20260830233517 | 65 | 0 | 2.0 | 10.0 | 0.00 | 0.00 | 0.00 | 81 | 1012.9 |
| 20260830232517 | 65 | 0 | 4.0 | 12.0 | 0.00 | 0.00 | 0.00 | 81 | 1012.9 |
| 20260830231517 | 65 | 0 | 5.0 | 13.0 | 0.00 | 0.00 | 0.00 | 81 | 1012.9 |
| 20260830230517 | 65 | 0 | 4.0 | 12.0 | 0.00 | 0.00 | 0.00 | 81 | 1013.0 |
| 20260830225517 | 65 | 0 | 3.0 | 9.0 | 0.00 | 0.00 | 0.00 | 81 | 1013.3 |
| 20260830224517 | 65 | 0 | 4.0 | 10.0 | 0.00 | 0.00 | 0.00 | 81 | 1013.2 |
| 20260830223517 | 65 | 0 | 4.0 | 11.0 | 0.00 | 0.00 | 0.00 | 81 | 1013.2 |
| 20260830222517 | 65 | 0 | 4.0 | 15.0 | 0.00 | 0.00 | 0.00 | 81 | 1013.1 |
| 20260830221517 | 65 | 0 | 4.0 | 10.0 | 0.00 | 0.00 | 0.00 | 81 | 1013.6 |
| 20260830220517 | 65 | 0 | 5.0 | 9.0 | 0.00 | 0.00 | 0.00 | 80 | 1013.5 |
| 20260830215517 | 65 | 0 | 3.0 | 8.0 | 0.00 | 0.00 | 0.00 | 80 | 1013.7 |
| 20260830214517 | 66 | 0 | 3.0 | 13.0 | 0.00 | 0.00 | 0.00 | 80 | 1013.9 |
| 20260830213517 | 66 | 0 | 3.0 | 12.0 | 0.00 | 0.00 | 0.00 | 80 | 1013.7 |
| 20260830212517 | 66 | 0 | 4.0 | 12.0 | 0.00 | 0.00 | 0.00 | 79 | 1013.9 |
| 20260830211517 | 66 | 0 | 4.0 | 12.0 | 0.00 | 0.00 | 0.00 | 79 | 1013.9 |
| 20260830210537 | 67 | 0 | 4.0 | 13.0 | 0.00 | 0.00 | 0.00 | 78 | 1013.9 |
| 20260830205517 | 67 | 0 | 5.0 | 13.0 | 0.00 | 0.00 | 0.00 | 77 | 1013.7 |
| 20260830204517 | 67 | 0 | 4.0 | 11.0 | 0.00 | 0.00 | 0.00 | 78 | 1013.8 |
| 20260830203537 | 66 | 0 | 5.0 | 14.0 | 0.00 | 0.00 | 0.00 | 79 | 1013.7 |
| 20260830202517 | 67 | 0 | 5.0 | 17.0 | 0.00 | 0.00 | 0.00 | 78 | 1013.8 |
| 20260830201537 | 67 | 0 | 5.0 | 13.0 | 0.00 | 0.00 | 0.00 | 78 | 1014.0 |
| 20260830200517 | 67 | 0 | 6.0 | 13.0 | 0.00 | 0.00 | 0.00 | 78 | 1014.0 |
| 20260830195517 | 67 | 0 | 4.0 | 11.0 | 0.00 | 0.00 | 0.00 | 78 | 1014.0 |
| 20260830194517 | 67 | 0 | 6.0 | 13.0 | 0.00 | 0.00 | 0.00 | 77 | 1013.8 |
| 20260830193517 | 67 | 0 | 5.0 | 11.0 | 0.00 | 0.00 | 0.00 | 77 | 1014.0 |
| 20260830192517 | 67 | 0 | 6.0 | 15.0 | 0.00 | 0.00 | 0.00 | 78 | 1014.0 |
| 20260830191517 | 67 | 0 | 7.0 | 16.0 | 0.00 | 0.00 | 0.00 | 77 | 1014.0 |
| 20260830190517 | 67 | 0 | 5.0 | 12.0 | 0.00 | 0.00 | 0.00 | 78 | 1013.9 |
| 20260830185517 | 67 | 0 | 5.0 | 13.0 | 0.00 | 0.00 | 0.00 | 79 | 1014.0 |
| 20260830184537 | 66 | 0 | 4.0 | 10.0 | 0.00 | 0.00 | 0.00 | 80 | 1014.0 |
| 20260830183517 | 65 | 0 | 5.0 | 12.0 | 0.00 | 0.00 | 0.00 | 80 | 1013.8 |
| 20260830182517 | 66 | 0 | 4.0 | 12.0 | 0.00 | 0.00 | 0.00 | 79 | 1014.0 |
| 20260830181517 | 66 | 0 | 4.0 | 10.0 | 0.00 | 0.00 | 0.00 | 80 | 1014.0 |
| 20260830180517 | 66 | 0 | 4.0 | 11.0 | 0.00 | 0.00 | 0.00 | 80 | 1014.2 |
| 20260830175517 | 66 | 0 | 4.0 | 12.0 | 0.00 | 0.00 | 0.00 | 79 | 1014.2 |
| 20260830174517 | 67 | 0 | 3.0 | 10.0 | 0.00 | 0.00 | 0.00 | 79 | 1014.2 |
| 20260830173517 | 67 | 0 | 5.0 | 12.0 | 0.00 | 0.00 | 0.00 | 78 | 1014.1 |
| 20260830172517 | 67 | 0 | 4.0 | 14.0 | 0.00 | 0.00 | 0.00 | 78 | 1014.1 |
| 20260830171517 | 67 | 0 | 4.0 | 10.0 | 0.00 | 0.00 | 0.00 | 78 | 1014.2 |
| 20260830170516 | 67 | 0 | 5.0 | 11.0 | 0.00 | 0.00 | 0.00 | 79 | 1014.2 |
| 20260830165516 | 66 | 0 | 4.0 | 12.0 | 0.00 | 0.00 | 0.00 | 79 | 1014.4 |
| 20260830164517 | 66 | 0 | 3.0 | 9.0 | 0.00 | 0.00 | 0.00 | 80 | 1014.5 |
| 20260830163536 | 66 | 0 | 3.0 | 9.0 | 0.00 | 0.00 | 0.00 | 79 | 1014.5 |
| 20260830162517 | 66 | 0 | 3.0 | 9.0 | 0.00 | 0.00 | 0.00 | 79 | 1014.4 |
| 20260830161516 | 66 | 0 | 2.0 | 6.0 | 0.00 | 0.00 | 0.00 | 80 | 1014.3 |
| 20260830160516 | 65 | 0 | 2.0 | 9.0 | 0.00 | 0.00 | 0.00 | 81 | 1014.1 |
| 20260830155516 | 65 | 0 | 2.0 | 8.0 | 0.00 | 0.00 | 0.00 | 81 | 1014.0 |
| 20260830154516 | 65 | 0 | 2.0 | 6.0 | 0.00 | 0.00 | 0.00 | 82 | 1013.9 |
| 20260830153536 | 64 | 0 | 3.0 | 8.0 | 0.00 | 0.00 | 0.00 | 83 | 1013.7 |
| 20260830152516 | 64 | 0 | 3.0 | 9.0 | 0.00 | 0.00 | 0.00 | 84 | 1013.6 |
| 20260830151516 | 64 | 0 | 3.0 | 9.0 | 0.00 | 0.00 | 0.00 | 84 | 1013.8 |
| 20260830150536 | 64 | 0 | 3.0 | 8.0 | 0.00 | 0.00 | 0.00 | 84 | 1013.8 |
| 20260830145536 | 64 | 0 | 4.0 | 9.0 | 0.00 | 0.00 | 0.00 | 84 | 1013.7 |
| 20260830144516 | 64 | 0 | 4.0 | 10.0 | 0.00 | 0.00 | 0.00 | 84 | 1013.7 |
| 20260830143516 | 64 | 0 | 3.0 | 11.0 | 0.00 | 0.00 | 0.00 | 85 | 1013.6 |
| 20260830142516 | 63 | 0 | 2.0 | 6.0 | 0.00 | 0.00 | 0.00 | 86 | 1013.7 |
| 20260830141517 | 63 | 0 | 4.0 | 10.0 | 0.00 | 0.00 | 0.00 | 86 | 1013.9 |
| 20260830140516 | 63 | 0 | 2.0 | 9.0 | 0.00 | 0.00 | 0.00 | 86 | 1013.9 |
| 20260830135536 | 63 | 0 | 3.0 | 8.0 | 0.00 | 0.00 | 0.00 | 87 | 1013.8 |
| 20260830134516 | 63 | 0 | 3.0 | 8.0 | 0.00 | 0.00 | 0.00 | 87 | 1013.9 |
| 20260830133516 | 62 | 0 | 3.0 | 8.0 | 0.00 | 0.00 | 0.00 | 87 | 1013.9 |
| 20260830132516 | 62 | 0 | 2.0 | 5.0 | 0.00 | 0.00 | 0.00 | 87 | 1013.7 |
| 20260830131516 | 62 | 0 | 3.0 | 9.0 | 0.00 | 0.00 | 0.00 | 87 | 1013.7 |
| 20260830130516 | 62 | 0 | 3.0 | 9.0 | 0.00 | 0.00 | 0.00 | 87 | 1013.5 |
| 20260830125516 | 62 | 0 | 2.0 | 8.0 | 0.00 | 0.00 | 0.00 | 87 | 1013.5 |
| 20260830124556 | 62 | 0 | 1.0 | 15.0 | 0.00 | 0.00 | 0.00 | 86 | 1013.6 |